Sable Island, Nova Scotia

4:03 PM AST on December 09, 2016 (GMT -0400)
Sable Island

Weather History for CWSA - January, 2013

Change the Weather History Date:

Sunday, January 20, 2013

  Actual Average Record
Temperature  
Mean Temperature 40 °F -  
Max Temperature 46 °F 36 °F 48 °F (2015)
Min Temperature 35 °F 25 °F 17 °F (1997)
Degree Days  
Heating Degree Days 24    
Moisture  
Dew Point 41 °F    
Average Humidity 96    
Maximum Humidity 100    
Minimum Humidity 80    
Precipitation  
Precipitation 0.24 in 0.16 in - ()
Sea Level Pressure  
Sea Level Pressure 29.87 in    
Wind  
Wind Speed 16 mph ()    
Max Wind Speed 32 mph    
Max Gust Speed 37 mph    
Visibility 3.2 miles    
Events Rain    
Averages and records for this station are not official NWS values.
T = Trace of Precipitation, MM = Missing Value Source: Averaged Metar Reports

Daily Weather History Graph

Daily Weather History Graph

Search for Another Location

Airport or City:

Trip Planner

Search our weather history database for the weather conditions in past years. The results will help you decide how hot, cold, wet, or windy it might be!

Date:

Astronomy

Jan. 20, 2013 Rise Set
Actual Time 7:28 AM AST 4:54 PM AST
Civil Twilight 6:56 AM AST 5:26 PM AST
Nautical Twilight 6:21 AM AST 6:01 PM AST
Astronomical Twilight 5:46 AM AST 6:35 PM AST
Moon 11:53 AM AST (1/20) 1:54 AM AST (1/20)
Length of Visible Light 10h 29m
Length of Day
9h 26m
Waxing Gibbous, 66% of the Moon is Illuminated
Jan 20
Waxing Gibbous
Jan 27
Full
Feb 3
Last Quarter
Feb 10
New
Feb 17
First Quarter

Hourly Weather History & Observations

Time (AST) Temp. Windchill Dew Point Humidity Pressure Visibility Wind Dir Wind Speed Gust Speed Precip Events Conditions
12:00 AM 41.0 °F 31.4 °F 41.0 °F 100% 30.07 in 3.0 mi SW 21.9 mph 28.8 mph N/A   Overcast
12:34 AM 41.0 °F 31.4 °F 41.0 °F 100% 30.06 in 3.5 mi SW 21.9 mph 27.6 mph N/A   Overcast
1:00 AM 41.0 °F 31.6 °F 41.0 °F 100% 30.06 in 3.0 mi SW 20.7 mph - N/A   Overcast
2:00 AM 42 °F - 42 °F 98% 30.08 in 3 mi WSW 18.4 mph - -   Unknown Precipitation
2:00 AM 41.0 °F 32.2 °F 41.0 °F 100% 30.08 in 3.0 mi WSW 18.4 mph - N/A   Overcast
2:26 AM 41.0 °F 33.1 °F 41.0 °F 100% 30.08 in 2.5 mi WSW 15.0 mph - N/A   Overcast
3:00 AM 41.0 °F 33.9 °F 41.0 °F 100% 30.09 in 2.1 mi SW 12.7 mph - N/A   Overcast
3:10 AM 41.0 °F 34.7 °F 41.0 °F 100% 30.08 in 2.0 mi SW 10.4 mph - N/A   Overcast
3:51 AM 39.2 °F 32.5 °F 39.2 °F 100% 30.07 in 1.6 mi SW 10.4 mph - N/A   Mostly Cloudy
4:00 AM 39.2 °F 32.5 °F 39.2 °F 100% 30.08 in 1.8 mi SW 10.4 mph - N/A   Partly Cloudy
4:25 AM 39.2 °F 32.5 °F 39.2 °F 100% 30.07 in 2.0 mi SW 10.4 mph - N/A   Mostly Cloudy
4:47 AM 39.2 °F 33.6 °F 39.2 °F 100% 30.07 in 2.1 mi NW 8.1 mph - N/A   Overcast
5:00 AM 39 °F - 39 °F 100% 30.07 in 5 mi North 6.9 mph - -   Overcast
5:00 AM 39.2 °F 34.2 °F 39.2 °F 100% 30.07 in 5.0 mi NNE 6.9 mph - N/A   Overcast
5:22 AM 37.4 °F 32.8 °F 37.4 °F 100% 30.07 in 5.0 mi NE 5.8 mph - N/A   Overcast
6:00 AM 37.4 °F 32.8 °F 37.4 °F 100% 30.07 in 5.0 mi East 5.8 mph - N/A   Mostly Cloudy
6:17 AM 37.4 °F 32.8 °F 37.4 °F 100% 30.06 in 4.0 mi East 5.8 mph - N/A   Scattered Clouds
6:25 AM 37.4 °F 33.8 °F 37.4 °F 100% 30.07 in 4.0 mi East 4.6 mph - N/A   Mostly Cloudy
6:33 AM 35.6 °F 30.7 °F 35.6 °F 100% 30.06 in 3.5 mi East 5.8 mph - N/A   Unknown
6:52 AM 35.6 °F 30.7 °F 35.6 °F 100% 30.06 in 2.4 mi East 5.8 mph - N/A   Overcast
6:56 AM 35.6 °F 30.7 °F 35.6 °F 100% 30.06 in 1.5 mi ESE 5.8 mph - N/A   Unknown
6:57 AM 35.6 °F 29.9 °F 35.6 °F 100% 30.06 in 1.4 mi ESE 6.9 mph - N/A   Overcast
7:00 AM 35.6 °F 30.7 °F 35.6 °F 100% 30.06 in 1.1 mi ESE 5.8 mph - N/A   Overcast
7:38 AM 37.4 °F 32.8 °F 37.4 °F 100% 30.05 in 1.5 mi SE 5.8 mph - N/A   Mostly Cloudy
7:41 AM 37.4 °F 32.1 °F 37.4 °F 100% 30.05 in 1.5 mi SE 6.9 mph - N/A   Unknown
7:51 AM 37.4 °F 33.8 °F 37.4 °F 100% 30.04 in 1.4 mi SSE 4.6 mph - N/A   Scattered Clouds
8:00 AM 39 °F - 39 °F 100% 30.05 in 1 mi South 5.8 mph - -  
8:00 AM 39.2 °F 35.0 °F 39.2 °F 100% 30.05 in 1.5 mi South 5.8 mph - N/A   Partly Cloudy
8:19 AM 39.2 °F 33.6 °F 39.2 °F 100% 30.04 in 2.0 mi South 8.1 mph - N/A   Mostly Cloudy
8:25 AM 39.2 °F 34.2 °F 39.2 °F 100% 30.03 in 2.5 mi South 6.9 mph - N/A   Mostly Cloudy
8:44 AM 41.0 °F 35.2 °F 41.0 °F 100% 30.04 in 2.4 mi South 9.2 mph - N/A   Mostly Cloudy
8:59 AM 41.0 °F 34.3 °F 41.0 °F 100% 30.03 in 3.0 mi South 11.5 mph - N/A   Overcast
9:00 AM 41.0 °F 34.3 °F 41.0 °F 100% 30.04 in 3.0 mi South 11.5 mph - N/A   Overcast
9:31 AM 41.0 °F 34.3 °F 41.0 °F 100% 30.03 in 3.5 mi South 11.5 mph - N/A   Partly Cloudy
10:00 AM 42.8 °F 36.6 °F 42.8 °F 100% 30.03 in 4.0 mi South 11.5 mph 17.3 mph N/A   Mostly Cloudy
11:00 AM 44 °F - 42 °F 89% 29.99 in 4 mi South 16.1 mph - -  
11:00 AM 42.8 °F 35.4 °F 41.0 °F 93% 29.99 in 4.0 mi South 15.0 mph - N/A   Scattered Clouds
12:00 PM 42.8 °F 34.0 °F 41.0 °F 93% 29.94 in 5.0 mi South 20.7 mph - N/A   Partly Cloudy
1:00 PM 44.6 °F 36.1 °F 42.8 °F 93% 29.90 in 5.0 mi South 21.9 mph - N/A   Overcast
2:00 PM 44 °F - 42 °F 89% 29.86 in 5 mi South 24.2 mph - -  
2:00 PM 44.6 °F 35.9 °F 42.8 °F 93% 29.86 in 5.0 mi South 23.0 mph 28.8 mph N/A   Mostly Cloudy
3:00 PM 44.6 °F 35.3 °F 42.8 °F 93% 29.82 in 5.0 mi South 26.5 mph 32.2 mph N/A   Mostly Cloudy
4:00 PM 44.6 °F 35.5 °F 41.0 °F 87% 29.80 in 5.0 mi South 25.3 mph 33.4 mph N/A   Overcast
5:00 PM 46 °F - 42 °F 80% 29.77 in 5 mi South 27.6 mph - -  
5:00 PM 46.4 °F 37.5 °F 42.8 °F 87% 29.77 in 5.0 mi South 27.6 mph - N/A   Scattered Clouds
6:00 PM 46.4 °F 37.4 °F 42.8 °F 87% 29.73 in 5.0 mi South 28.8 mph 34.5 mph N/A   Mostly Cloudy
6:33 PM 46.4 °F 37.4 °F 42.8 °F 87% 29.71 in 5.0 mi SSW 28.8 mph 35.7 mph N/A Rain Light Rain
6:51 PM 46.4 °F 37.9 °F 42.8 °F 87% 29.70 in 5.0 mi South 25.3 mph 31.1 mph N/A   Overcast
7:00 PM 46.4 °F 37.5 °F 42.8 °F 87% 29.70 in 5.0 mi South 27.6 mph - N/A   Overcast
7:11 PM 46.4 °F 37.4 °F 42.8 °F 87% 29.69 in 5.0 mi South 28.8 mph 34.5 mph N/A Rain Light Rain
7:20 PM 46.4 °F 37.4 °F 42.8 °F 87% 29.69 in 4.0 mi South 28.8 mph 34.5 mph N/A Rain Light Rain
7:30 PM 46.4 °F 37.5 °F 42.8 °F 87% 29.69 in 3.0 mi SSW 27.6 mph 35.7 mph N/A Rain Light Rain
7:31 PM 46.4 °F 37.5 °F 42.8 °F 87% 29.69 in 2.5 mi SSW 27.6 mph 34.5 mph N/A Rain Heavy Rain
8:00 PM 46 °F - 44 °F 88% 29.67 in 4 mi South 27.6 mph - -   Unknown Precipitation
8:00 PM 46.4 °F 37.4 °F 42.8 °F 87% 29.67 in 4.0 mi South 28.8 mph - N/A Rain Rain
8:05 PM 46.4 °F 37.4 °F 44.6 °F 93% 29.67 in 4.0 mi South 28.8 mph 36.8 mph N/A   Unknown
8:11 PM 46.4 °F 37.0 °F 42.8 °F 87% 29.66 in 4.0 mi South 31.1 mph 36.8 mph N/A   Unknown
8:12 PM 46.4 °F 36.9 °F 42.8 °F 87% 29.66 in 4.0 mi South 32.2 mph - N/A Rain Light Rain
8:28 PM 46.4 °F 37.4 °F 44.6 °F 93% 29.67 in 2.5 mi SSW 28.8 mph 36.8 mph N/A Rain Rain
8:46 PM 46.4 °F 37.2 °F 44.6 °F 93% 29.64 in 2.5 mi South 29.9 mph - N/A Rain Light Rain
8:47 PM 46.4 °F 37.4 °F 42.8 °F 87% 29.65 in 4.0 mi South 28.8 mph 34.5 mph N/A Rain Light Rain
8:49 PM - - - N/A% - 4.0 mi North - - N/A   Unknown
9:00 PM 46.4 °F 37.2 °F 44.6 °F 93% 29.65 in 3.0 mi SSW 29.9 mph 36.8 mph N/A Rain Light Rain
9:40 PM 46.4 °F 37.0 °F 44.6 °F 93% 29.63 in 4.0 mi SSW 31.1 mph 36.8 mph N/A   Overcast
9:43 PM 46.4 °F 37.5 °F 46.4 °F 100% 29.65 in 3.5 mi SSW 27.6 mph 36.8 mph N/A Rain Light Rain
9:47 PM 46.4 °F 38.3 °F 46.4 °F 100% 29.64 in 3.0 mi SW 23.0 mph 36.8 mph N/A Rain Light Rain
9:48 PM 46.4 °F 38.5 °F 46.4 °F 100% 29.64 in 2.1 mi SW 21.9 mph 35.7 mph N/A Rain Light Rain
10:00 PM 44.6 °F 37.4 °F 44.6 °F 100% 29.64 in 1.5 mi WSW 16.1 mph 23.0 mph N/A Rain Light Rain
10:03 PM 44.6 °F 37.2 °F 44.6 °F 100% 29.64 in 1.6 mi SW 17.3 mph - N/A Rain Light Rain
10:13 PM 44.6 °F 35.7 °F 44.6 °F 100% 29.65 in 1.4 mi WSW 24.2 mph - N/A Rain Rain
10:16 PM 44.6 °F 35.5 °F 44.6 °F 100% 29.64 in 1.0 mi SW 25.3 mph - N/A Rain Heavy Rain
10:34 PM 44.6 °F 35.7 °F 44.6 °F 100% 29.63 in 1.5 mi SW 24.2 mph - N/A Rain Rain
10:58 PM 44.6 °F 36.1 °F 44.6 °F 100% 29.62 in 2.4 mi SW 21.9 mph 28.8 mph N/A Rain Light Rain
11:00 PM 45 °F - 45 °F 100% 29.62 in 2 mi SW 23.0 mph - - Rain Light Rain
11:00 PM 44.6 °F 35.9 °F 44.6 °F 100% 29.62 in 2.4 mi SW 23.0 mph 29.9 mph N/A Rain Light Rain
11:04 PM 44.6 °F 36.1 °F 44.6 °F 100% 29.62 in 2.4 mi SW 21.9 mph 29.9 mph N/A   Overcast
11:16 PM 44.6 °F 36.1 °F 44.6 °F 100% 29.62 in 2.4 mi SW 21.9 mph 27.6 mph N/A   Overcast